Satellite-Ground Cal/Val Region Overpasses Predictions

Prediction of Satellite NPP Overpassing Cal/Val Region: PacNW

Region Location: (Latitude: 10.00, Longitude: 139.50) to (Latitude: 22.70, Longitude: 165.60).

Table of predicted overpasses for the next 14.0 days since TLE Epoch: 9/16/2023
Interval Starting Time Starting Location Ending Time Ending Location
1 09/16/2023 03:43:48 ( 10.01, 144.01) 09/16/2023 03:47:24 ( 22.69, 140.99)
2 09/16/2023 14:35:21 ( 18.58, 165.59) 09/16/2023 14:37:47 ( 10.01, 163.59)
3 09/16/2023 16:15:41 ( 22.68, 141.23) 09/16/2023 16:17:42 ( 15.58, 139.51)
4 09/17/2023 03:24:45 ( 10.03, 148.76) 09/17/2023 03:28:20 ( 22.66, 145.76)
5 09/17/2023 15:56:38 ( 22.65, 145.98) 09/17/2023 16:00:13 ( 10.03, 142.98)
6 09/18/2023 03:05:43 ( 10.06, 153.51) 09/18/2023 03:09:18 ( 22.68, 150.52)
7 09/18/2023 15:37:35 ( 22.69, 150.75) 09/18/2023 15:41:11 ( 10.01, 147.74)
8 09/19/2023 02:46:40 ( 10.02, 158.28) 09/19/2023 02:50:15 ( 22.65, 155.28)
9 09/19/2023 15:18:32 ( 22.66, 155.50) 09/19/2023 15:22:07 ( 10.04, 152.50)
10 09/20/2023 02:27:37 ( 10.05, 163.04) 09/20/2023 02:31:12 ( 22.67, 160.04)
11 09/20/2023 14:59:29 ( 22.70, 160.27) 09/20/2023 15:03:05 ( 10.02, 157.26)
12 09/21/2023 02:11:14 ( 19.42, 165.60) 09/21/2023 02:12:09 ( 22.64, 164.80)
13 09/21/2023 03:50:04 ( 10.03, 142.43) 09/21/2023 03:53:34 ( 22.36, 139.50)
14 09/21/2023 14:40:26 ( 22.67, 165.02) 09/21/2023 14:44:01 ( 10.05, 162.02)
15 09/21/2023 16:21:56 ( 22.66, 139.64) 09/21/2023 16:22:05 ( 22.13, 139.51)
16 09/22/2023 03:31:01 ( 10.06, 147.18) 09/22/2023 03:34:36 ( 22.68, 144.18)
17 09/22/2023 16:02:53 ( 22.69, 144.41) 09/22/2023 16:06:29 ( 10.01, 141.40)
18 09/23/2023 03:11:58 ( 10.03, 151.94) 09/23/2023 03:15:33 ( 22.65, 148.95)
19 09/23/2023 15:43:50 ( 22.66, 149.16) 09/23/2023 15:47:25 ( 10.04, 146.17)
20 09/24/2023 02:52:54 ( 10.00, 156.71) 09/24/2023 02:56:30 ( 22.69, 153.70)
21 09/24/2023 15:24:47 ( 22.68, 153.93) 09/24/2023 15:28:23 ( 10.01, 150.92)
22 09/25/2023 02:33:52 ( 10.04, 161.46) 09/25/2023 02:37:27 ( 22.66, 158.47)
23 09/25/2023 15:05:44 ( 22.65, 158.68) 09/25/2023 15:09:19 ( 10.03, 155.69)
24 09/26/2023 02:15:35 ( 12.77, 165.60) 09/26/2023 02:18:24 ( 22.69, 163.22)
25 09/26/2023 03:56:18 ( 10.02, 140.85) 09/26/2023 03:57:57 ( 15.84, 139.51)
26 09/26/2023 14:46:41 ( 22.68, 163.45) 09/26/2023 14:50:16 ( 10.06, 160.45)
27 09/27/2023 03:37:16 ( 10.06, 145.61) 09/27/2023 03:40:51 ( 22.68, 142.61)
28 09/27/2023 14:30:45 ( 11.73, 165.59) 09/27/2023 14:31:14 ( 10.02, 165.20)
29 09/27/2023 16:09:08 ( 22.69, 142.84) 09/27/2023 16:12:44 ( 10.01, 139.83)
30 09/28/2023 03:18:12 ( 10.04, 150.37) 09/28/2023 03:21:47 ( 22.66, 147.37)
31 09/28/2023 15:50:05 ( 22.65, 147.59) 09/28/2023 15:53:40 ( 10.03, 144.59)
32 09/29/2023 02:59:09 ( 10.01, 155.14) 09/29/2023 03:02:45 ( 22.70, 152.12)
